Weather in Telemba

Russia / Republic of Buryatia     52°44′15″N   113°17′14″E
temp.,
°C
wind,
m/s
gust,
m/s
humid.,
%
clouds,
%
prec.,
mm/h
press.,
hPa
HPBL,
m
15 april, thu
thu1523:00−3nw2556100 0.0 1013114
02:00−4wnw2464100 0.0 1012131
05:00−6wsw2276100 0.0 101242
08:00−3w23535 0.0 1011477
11:00+2nw232897 0.0 10082565
14:00+3nw3322100 0.0 10073472
17:00+1n343123 0.0 10091832
20:00−2nnw2351100 0.1 101258
16 april, fri
fri1623:00−4nnw22534 0.0 101544
02:00−5nw22550 0.0 101737
05:00−6nw22600 0.0 101938
08:00−2nnw25407 0.0 1019447
11:00+2nw342417 0.0 10181875
14:00+4w45215 0.0 10152229
17:00+4w573021 0.0 10141628
20:00−1w39575 0.0 1016234
17 april, sat
sat1723:00−3w39615 0.0 1016304
02:00−2wsw276515 0.0 1014234
05:00−3sw227548 0.0 101418
08:00+1wsw375494 0.0 1012399
11:00+10wsw573289 0.0 10071238
14:00+12w69265 0.0 10042085
17:00+12w48305 0.0 10032144
20:00+4wnw33546 0.0 100646
18 april, sun
sun1823:00+2wnw226399 0.0 100714
02:00+1wsw226799 0.0 100814
05:00−1w117481 0.0 100910
08:00+4sw1159100 0.0 1008221
11:00+8w2346100 0.0 1006908
14:00+11wnw4637100 0.0 10032190
17:00+6nnw4661100 0.0 10061070
20:00+3nw248038 0.0 100996
19 april, mon
mon1923:00−1wnw512581 0.0 1013543
02:00−2nw510739 0.1 1016757
05:00−5wnw412580 0.0 1020644
08:00−2nw510330 0.0 10211305
11:00+1nnw58210 0.0 10201937
14:00+4nnw46185 0.0 10192070
17:00+4nne231756 0.0 10181876
20:00−2ene36367 0.0 102092